EW2799 Weather Reports


time (UTC)temp
C
wind
direction
speed
KPH
gust
KPH
rain 1hr
cm
rain 24hr
cm
rain mn
cm
humidity
%
barometer
mb
20260506124540 18 0 0.0 3.2 0.00 0.00 0.00 85 1017.2
20260506124033 18 0 0.0 3.2 0.00 0.00 0.00 85 1017.0
20260506123530 18 0 0.0 3.2 0.00 0.00 0.00 86 1017.1
20260506123050 18 0 0.0 3.2 0.00 0.00 0.00 88 1017.1
20260506122530 17 165 0.0 3.2 0.00 0.00 0.00 89 1017.0
20260506122032 17 0 0.0 1.6 0.00 0.00 0.00 91 1016.7
20260506121544 16 268 0.0 1.6 0.00 0.00 0.00 91 1016.8
20260506121030 16 0 0.0 0.0 0.00 0.00 0.00 91 1016.9
20260506120532 16 0 0.0 0.0 0.00 0.00 0.00 92 1016.8
20260506120045 15 0 0.0 0.0 0.00 0.00 0.00 92 1016.7
20260506115530 15 0 0.0 0.0 0.00 0.00 0.00 92 1016.7
20260506115029 15 0 0.0 0.0 0.00 0.00 0.00 91 1016.7
20260506114546 15 0 0.0 0.0 0.00 0.00 0.00 91 1016.6
20260506114029 15 0 0.0 1.6 0.00 0.00 0.00 91 1016.5
20260506113529 14 0 0.0 1.6 0.00 0.00 0.00 91 1016.5
20260506113040 14 0 0.0 1.6 0.00 0.00 0.00 91 1016.4
20260506112531 14 0 0.0 0.0 0.00 0.00 0.00 91 1016.4
20260506112029 14 0 0.0 0.0 0.00 0.00 0.00 91 1016.2
20260506111546 14 0 0.0 0.0 0.00 0.00 0.00 91 1016.0
20260506111029 13 0 0.0 0.0 0.00 0.00 0.00 91 1016.0
20260506110529 13 0 0.0 1.6 0.00 0.00 0.00 90 1015.9
20260506110042 13 0 0.0 1.6 0.00 0.00 0.00 90 1015.9
20260506105531 13 0 0.0 1.6 0.00 0.00 0.00 90 1015.8
20260506105030 13 0 0.0 1.6 0.00 0.00 0.00 90 1015.8
20260506104545 13 0 0.0 1.6 0.00 0.00 0.00 89 1015.7
20260506104029 13 0 0.0 0.0 0.00 0.00 0.00 89 1015.7
20260506103530 13 0 0.0 0.0 0.00 0.00 0.00 89 1015.7
20260506103040 13 0 0.0 0.0 0.00 0.00 0.00 89 1015.8
20260506102530 13 0 0.0 0.0 0.00 0.00 0.00 89 1015.7
20260506102030 13 0 0.0 0.0 0.00 0.00 0.00 89 1015.6
20260506101544 13 0 0.0 0.0 0.00 0.00 0.00 88 1015.6
20260506101029 13 0 0.0 0.0 0.00 0.00 0.00 88 1015.7
20260506100529 13 0 0.0 0.0 0.00 0.00 0.00 88 1015.7
20260506095529 14 0 0.0 0.0 0.00 0.00 0.00 87 1015.4
20260506095029 14 0 0.0 0.0 0.00 0.00 0.00 87 1015.6
20260506094542 14 0 0.0 0.0 0.00 0.00 0.00 87 1015.5
20260506094028 14 0 0.0 0.0 0.00 0.00 0.00 87 1015.6
20260506093530 14 0 0.0 0.0 0.00 0.00 0.00 86 1015.6
20260506093040 14 0 0.0 0.0 0.00 0.00 0.00 86 1015.6
20260506092533 14 0 0.0 0.0 0.00 0.00 0.00 86 1015.6
20260506092030 14 0 0.0 0.0 0.00 0.00 0.00 85 1015.4
20260506091541 14 0 0.0 0.0 0.00 0.00 0.00 85 1015.6
20260506091031 14 0 0.0 0.0 0.00 0.00 0.00 85 1015.6
20260506090530 15 0 0.0 0.0 0.00 0.00 0.00 84 1015.6
20260506090040 15 0 0.0 0.0 0.00 0.00 0.00 84 1015.6
20260506085529 15 0 0.0 0.0 0.00 0.00 0.00 84 1015.7
20260506085029 15 0 0.0 0.0 0.00 0.00 0.00 84 1015.8
20260506084543 15 0 0.0 0.0 0.00 0.00 0.00 84 1015.9
20260506084030 15 0 0.0 0.0 0.00 0.00 0.00 84 1015.9
20260506083529 15 0 0.0 0.0 0.00 0.00 0.00 83 1016.0
20260506083045 15 0 0.0 0.0 0.00 0.00 0.00 83 1016.1
20260506082529 15 0 0.0 0.0 0.00 0.00 0.00 83 1016.1
20260506082029 15 0 0.0 0.0 0.00 0.00 0.00 83 1016.1
20260506081544 15 0 0.0 0.0 0.00 0.00 0.00 83 1016.2
20260506081030 15 0 0.0 0.0 0.00 0.00 0.00 83 1016.2
20260506080530 15 0 0.0 0.0 0.00 0.00 0.00 83 1016.2
20260506073528 15 0 0.0 0.0 0.00 0.00 0.00 81 1016.2
20260506073042 15 0 0.0 0.0 0.00 0.00 0.00 81 1016.1
20260506072529 15 0 0.0 0.0 0.00 0.00 0.00 81 1016.2
20260506072031 15 0 0.0 0.0 0.00 0.00 0.00 80 1016.3
20260506071539 15 0 0.0 0.0 0.00 0.00 0.00 80 1016.3
20260506071030 15 0 0.0 0.0 0.00 0.00 0.00 79 1016.2
20260506070529 15 0 0.0 0.0 0.00 0.00 0.00 79 1016.2
20260506062030 16 0 0.0 6.4 0.00 0.00 0.00 74 1015.9
20260506061540 16 0 0.0 6.4 0.00 0.00 0.00 74 1015.9
20260506061031 16 0 1.6 6.4 0.00 0.00 0.00 75 1015.8
20260506060532 15 175 0.0 6.4 0.00 0.00 0.00 76 1015.8
20260506051033 15 0 0.0 0.0 0.00 0.00 0.00 78 1016.1
20260506050530 15 0 0.0 0.0 0.00 0.00 0.00 78 1016.0
20260506045028 16 0 0.0 0.0 0.00 0.00 0.00 76 1015.9
20260506044546 16 0 0.0 0.0 0.00 0.00 0.00 76 1016.1
20260506044046 16 0 0.0 0.0 0.00 0.00 0.00 74 1016.1
20260506043530 16 0 0.0 0.0 0.00 0.00 0.00 74 1016.4
20260506043042 16 0 0.0 0.0 0.00 0.00 0.00 73 1016.4
20260506042531 16 0 0.0 0.0 0.00 0.00 0.00 73 1016.3
20260506042031 16 0 0.0 0.0 0.00 0.00 0.00 73 1016.3
20260506041539 16 0 0.0 0.0 0.00 0.00 0.00 72 1016.4
20260506041032 16 0 0.0 0.0 0.00 0.00 0.00 71 1016.3
20260506040530 16 0 0.0 0.0 0.00 0.00 0.00 70 1016.2
20260506040044 16 0 0.0 0.0 0.00 0.00 0.00 70 1016.2
20260506035533 16 0 0.0 0.0 0.00 0.00 0.00 69 1016.1
20260506035031 16 0 0.0 0.0 0.00 0.00 0.00 69 1016.2
20260506034541 16 0 0.0 0.0 0.00 0.00 0.00 68 1016.2
20260506034030 16 0 0.0 0.0 0.00 0.00 0.00 68 1016.0
20260506033530 16 0 0.0 0.0 0.00 0.00 0.00 66 1016.2
20260506033038 17 0 0.0 0.0 0.00 0.00 0.00 65 1016.0
20260506032530 17 0 0.0 0.0 0.00 0.00 0.00 65 1016.0
20260506032031 17 0 0.0 0.0 0.00 0.00 0.00 64 1016.1
20260506031542 17 0 0.0 0.0 0.00 0.00 0.00 65 1016.1
20260506031030 17 0 0.0 0.0 0.00 0.00 0.00 64 1016.2
20260506030532 17 0 0.0 0.0 0.00 0.00 0.00 64 1016.2
20260506030057 17 0 0.0 0.0 0.00 0.00 0.00 63 1016.4
20260506025530 17 0 0.0 0.0 0.00 0.00 0.00 63 1016.5
20260506025034 17 0 0.0 0.0 0.00 0.00 0.00 63 1016.5
20260506024552 17 0 0.0 0.0 0.00 0.00 0.00 62 1016.4
20260506024031 17 0 0.0 0.0 0.00 0.00 0.00 62 1016.3
20260506023531 17 0 0.0 0.0 0.00 0.00 0.00 62 1016.3
20260506023041 17 0 0.0 0.0 0.00 0.00 0.00 62 1016.2
20260506022530 18 0 0.0 0.0 0.00 0.00 0.00 63 1016.2
20260506022030 18 0 0.0 0.0 0.00 0.00 0.00 62 1016.2
20260506021540 18 0 0.0 0.0 0.00 0.00 0.00 63 1016.4
20260506021030 18 0 0.0 0.0 0.00 0.00 0.00 62 1016.2
20260506020534 18 0 0.0 0.0 0.00 0.00 0.00 63 1016.2
20260506020039 18 0 0.0 0.0 0.00 0.00 0.00 63 1016.2
20260506015531 18 0 0.0 0.0 0.00 0.00 0.00 64 1016.1
20260506015033 18 0 0.0 0.0 0.00 0.00 0.00 65 1016.1
20260506014553 18 0 0.0 0.0 0.00 0.00 0.00 65 1016.1
20260506014030 19 0 0.0 0.0 0.00 0.00 0.00 65 1016.0
20260506013527 19 0 0.0 0.0 0.00 0.00 0.00 65 1015.9
20260506013042 19 0 0.0 0.0 0.00 0.00 0.00 63 1015.9
20260506012527 20 0 0.0 0.0 0.00 0.00 0.00 63 1016.0
20260506012028 20 0 0.0 0.0 0.00 0.00 0.00 63 1015.9
20260506011544 20 0 0.0 0.0 0.00 0.00 0.00 61 1016.0
20260506011030 20 0 0.0 0.0 0.00 0.00 0.00 60 1016.0
20260506010527 21 0 0.0 0.0 0.00 0.00 0.00 59 1016.0
20260506010049 21 0 0.0 0.0 0.00 0.00 0.00 58 1016.0
20260506005527 21 0 0.0 0.0 0.00 0.00 0.00 57 1015.9
20260506005026 21 0 0.0 0.0 0.00 0.00 0.00 56 1015.9
20260506004548 22 0 0.0 0.0 0.00 0.00 0.00 55 1015.8
20260506004027 22 0 0.0 0.0 0.00 0.00 0.00 54 1015.8
20260506003531 22 0 0.0 0.0 0.00 0.00 0.00 53 1015.9
20260506003042 23 0 0.0 0.0 0.00 0.00 0.00 52 1015.8
20260506002530 23 0 0.0 0.0 0.00 0.00 0.00 51 1015.7
20260506002027 23 0 0.0 3.2 0.00 0.00 0.00 50 1015.7
20260506001546 23 0 0.0 3.2 0.00 0.00 0.00 49 1015.9
20260506001031 24 262 0.0 1.6 0.00 0.00 0.00 47 1015.9
20260506000529 24 0 0.0 1.6 0.00 0.00 0.00 46 1015.6
20260506000042 24 0 0.0 4.8 0.00 0.00 0.00 46 1015.5
20260505235527 24 0 0.0 4.8 0.00 0.00 0.00 46 1015.4
20260505235027 25 246 0.0 4.8 0.00 0.00 0.00 45 1015.6
20260505234543 25 0 1.6 8.0 0.00 0.00 0.00 45 1015.3
20260505234029 25 284 1.6 8.0 0.00 0.00 0.00 44 1015.2
20260505233527 25 271 1.6 8.0 0.00 0.00 0.00 44 1015.1
20260505233040 25 0 0.0 4.8 0.00 0.00 0.00 44 1015.2
20260505232526 25 0 0.0 4.8 0.00 0.00 0.00 43 1015.2
20260505232027 25 257 0.0 9.7 0.00 0.00 0.00 42 1015.1
20260505231544 25 0 1.6 9.7 0.00 0.00 0.00 42 1015.2
20260505231027 25 237 0.0 14.5 0.00 0.00 0.00 41 1015.3
20260505230530 26 108 1.6 14.5 0.00 0.00 0.00 41 1015.3
20260505230048 26 236 1.6 6.4 0.00 0.00 0.00 40 1015.3
20260505225530 26 202 1.6 6.4 0.00 0.00 0.00 40 1015.1
20260505225033 26 277 1.6 6.4 0.00 0.00 0.00 40 1015.0
20260505224547 26 186 0.0 9.7 0.00 0.00 0.00 41 1015.1
20260505224031 26 300 1.6 17.7 0.00 0.00 0.00 41 1015.0
20260505223530 26 271 1.6 17.7 0.00 0.00 0.00 42 1015.1
20260505223044 26 150 6.4 17.7 0.00 0.00 0.00 41 1015.1
20260505222528 26 313 3.2 14.5 0.00 0.00 0.00 41 1015.0
20260505222028 26 257 3.2 11.3 0.00 0.00 0.00 40 1015.0
20260505221541 27 229 1.6 9.7 0.00 0.00 0.00 41 1015.1
20260505221031 27 199 1.6 12.9 0.00 0.00 0.00 41 1015.3
20260505220528 27 298 4.8 12.9 0.00 0.00 0.00 40 1015.2
20260505220047 27 231 1.6 8.0 0.00 0.00 0.00 39 1015.3
20260505215530 27 54 0.0 9.7 0.00 0.00 0.00 39 1015.4
20260505215030 27 159 1.6 9.7 0.00 0.00 0.00 39 1015.3
20260505214543 27 301 3.2 9.7 0.00 0.00 0.00 38 1015.3
20260505214029 27 187 1.6 8.0 0.00 0.00 0.00 38 1015.4
20260505213534 27 198 1.6 16.1 0.00 0.00 0.00 39 1015.5
20260505213046 27 296 1.6 16.1 0.00 0.00 0.00 39 1015.5
20260505212533 27 239 4.8 14.5 0.00 0.00 0.00 38 1015.6
20260505212030 27 271 3.2 12.9 0.00 0.00 0.00 40 1015.5
20260505211545 27 209 3.2 12.9 0.00 0.00 0.00 39 1015.6
20260505211032 27 157 1.6 12.9 0.00 0.00 0.00 39 1015.5
20260505210530 27 321 1.6 12.9 0.00 0.00 0.00 40 1015.6
20260505210037 27 273 3.2 11.3 0.00 0.00 0.00 39 1015.6
20260505205532 27 348 3.2 8.0 0.00 0.00 0.00 38 1015.7
20260505205030 27 0 0.0 16.1 0.00 0.00 0.00 38 1015.7
20260505204544 27 0 3.2 17.7 0.00 0.00 0.00 39 1015.8
20260505204034 27 0 3.2 17.7 0.00 0.00 0.00 42 1015.8
20260505203530 27 239 4.8 20.9 0.00 0.00 0.00 41 1015.9
20260505203049 27 228 4.8 20.9 0.00 0.00 0.00 40 1015.9
20260505202529 27 304 3.2 17.7 0.00 0.00 0.00 40 1015.9
20260505202030 27 141 6.4 20.9 0.00 0.00 0.00 42 1015.8
20260505201547 27 232 6.4 20.9 0.00 0.00 0.00 42 1015.9
20260505201030 27 336 1.6 12.9 0.00 0.00 0.00 40 1016.0
20260505200530 27 279 3.2 12.9 0.00 0.00 0.00 39 1016.0
20260505200053 27 203 4.8 12.9 0.00 0.00 0.00 37 1016.1
20260505195533 27 221 0.0 8.0 0.00 0.00 0.00 38 1016.1
20260505195029 27 0 1.6 9.7 0.00 0.00 0.00 40 1016.2
20260505194548 27 309 1.6 9.7 0.00 0.00 0.00 38 1016.2
20260505194031 27 315 3.2 11.3 0.00 0.00 0.00 40 1016.3
20260505193534 27 0 3.2 11.3 0.00 0.00 0.00 41 1016.3
20260505193055 27 255 1.6 8.0 0.00 0.00 0.00 39 1016.4
20260505192530 26 234 1.6 11.3 0.00 0.00 0.00 42 1016.4
20260505192029 26 94 3.2 11.3 0.00 0.00 0.00 42 1016.6
20260505191542 26 316 3.2 14.5 0.00 0.00 0.00 41 1016.6
20260505191031 26 277 4.8 14.5 0.00 0.00 0.00 43 1016.7
20260505190529 26 240 6.4 14.5 0.00 0.00 0.00 42 1016.9
20260505190044 26 342 4.8 14.5 0.00 0.00 0.00 42 1017.0
20260505185530 27 175 3.2 14.5 0.00 0.00 0.00 41 1017.0
20260505185030 27 218 4.8 14.5 0.00 0.00 0.00 40 1017.0
20260505184542 27 203 1.6 9.7 0.00 0.00 0.00 43 1017.2
20260505184030 27 178 1.6 9.7 0.00 0.00 0.00 43 1017.2
20260505183530 26 0 3.2 20.9 0.00 0.00 0.00 45 1017.4
20260505183043 26 360 3.2 20.9 0.00 0.00 0.00 46 1017.6
20260505182529 26 311 1.6 19.3 0.00 0.00 0.00 48 1017.6
20260505182029 26 250 6.4 19.3 0.00 0.00 0.00 45 1017.7
20260505181540 26 176 1.6 6.4 0.00 0.00 0.00 45 1017.7
20260505181030 26 0 1.6 6.4 0.00 0.00 0.00 45 1017.7
20260505180529 25 128 1.6 19.3 0.00 0.00 0.00 50 1017.6
20260505180044 25 282 6.4 19.3 0.00 0.00 0.00 46 1017.7
20260505175530 26 263 3.2 14.5 0.00 0.00 0.00 48 1017.8
20260505175030 26 227 4.8 14.5 0.00 0.00 0.00 47 1017.9
20260505174542 25 198 4.8 20.9 0.00 0.00 0.00 48 1017.9
20260505174030 25 278 4.8 20.9 0.00 0.00 0.00 46 1017.8
20260505173529 26 194 6.4 20.9 0.00 0.00 0.00 48 1017.8
20260505173039 25 241 1.6 17.7 0.00 0.00 0.00 50 1017.8
20260505172529 25 217 4.8 19.3 0.00 0.00 0.00 48 1017.8
20260505172029 25 277 4.8 20.9 0.00 0.00 0.00 50 1018.0
20260505171547 25 223 8.0 20.9 0.00 0.00 0.00 49 1018.0
20260505171029 25 258 3.2 12.9 0.00 0.00 0.00 51 1018.0
20260505170529 25 246 4.8 14.5 0.00 0.00 0.00 50 1018.0
20260505170045 25 261 4.8 14.5 0.00 0.00 0.00 50 1017.9
20260505165529 25 0 1.6 6.4 0.00 0.00 0.00 52 1018.1
20260505165030 25 314 1.6 11.3 0.00 0.00 0.00 52 1018.1
20260505164544 25 76 1.6 11.3 0.00 0.00 0.00 54 1018.1
20260505164031 25 265 4.8 14.5 0.00 0.00 0.00 52 1018.2
20260505163530 25 0 3.2 14.5 0.00 0.00 0.00 53 1018.2
20260505163042 25 262 3.2 14.5 0.00 0.00 0.00 52 1018.3
20260505162530 25 138 6.4 12.9 0.00 0.00 0.00 52 1018.4
20260505162033 25 0 1.6 9.7 0.00 0.00 0.00 54 1018.6
20260505161539 24 352 3.2 12.9 0.00 0.00 0.00 54 1018.6
20260505161030 24 275 4.8 12.9 0.00 0.00 0.00 54 1018.5
20260505160531 24 232 4.8 11.3 0.00 0.00 0.00 52 1018.6
20260505153048 23 269 1.6 6.4 0.00 0.00 0.00 54 1018.7
20260505152530 23 73 1.6 6.4 0.00 0.00 0.00 56 1018.8
20260505152036 23 299 1.6 8.0 0.00 0.00 0.00 55 1018.8
20260505151544 22 246 3.2 12.9 0.00 0.00 0.00 57 1018.7
20260505151030 22 0 0.0 12.9 0.00 0.00 0.00 56 1018.7
20260505150530 22 183 1.6 9.7 0.00 0.00 0.00 58 1018.6
20260505140530 20 0 3.2 8.0 0.00 0.00 0.00 64 1018.4
20260505125031 17 0 0.0 0.0 0.00 0.00 0.00 79 1018.0